Location: ?????????
(38.5999°N, 22.7695°E)
Time: 12:01:13
(UTC+00:00)

UNK - Pass Details

Date: 23 May 2024
Orbit: 659 x 680 km, 98.3° (Epoch: 18 June)

Event Time Altitude Azimuth Distance (km) Brightness Sun altitude
Exits shadow 01:40:46 - 172° (S) 2,283 6.1 -15.2°
Reaches altitude 10° 01:41:12 10° 173° (S) 2,112 6.0 -15.1°
Maximum altitude 01:45:48 73° 257° (WSW) 714 3.7 -14.5°
Drops below altitude 10° 01:50:27 10° 343° (NNW) 2,126 6.6 -13.8°
Sets 01:52:43 0° 345° (NNW) 3,043 7.5 -13.5°
